This demonstration page uses our WeatherBlox Daily Observations layout. Learn more.

Left ArrowRight Arrow

44.8408, -93.29828

Hourly Observations for September 27, 2020

Temp ( °F °C ) Dew Point ( °F °C ) Humidity (%) Winds ( mph kmh ) Pressure ( in mb ) Visibility ( mi km ) Precip ( " mm )
12:53 am 00:53 Mostly Clear 58 14.4 57 13.9 97 97 W 7 11 29.62 1003 10 16 0.00 0.00
1:53 am 01:53 Mostly Clear 58 14.4 56 13.3 93 93 W 3 6 29.63 1003 10 16 0.00 0.00
2:53 am 02:53 Mostly Clear 57 13.9 55 12.8 93 93 SW 6 9 29.64 1004 9 14 0.00 0.00
3:53 am 03:53 Clear 56 13.3 54 12.2 93 93 S 7 11 29.63 1003 10 16 0.00 0.00
4:53 am 04:53 Clear 56 13.3 54 12.2 93 93 SW 8 13 29.63 1004 10 16 0.00 0.00
5:53 am 05:53 Clear 56 13.3 51 10.6 84 84 WSW 10 17 29.65 1004 10 16 0.00 0.00
6:53 am 06:53 Partly Cloudy 55 12.8 48 8.9 77 77 W 9 15 29.66 1005 10 16 0.00 0.00
7:53 am 07:53 Mostly Cloudy 54 12.2 48 8.9 80 80 W 9 15 29.67 1005 10 16 0.00 0.00
8:53 am 08:53 Mostly Cloudy 54 12.2 46 7.8 75 75 W 12 19 29.69 1005 10 16 0.00 0.00
9:53 am 09:53 Partly Cloudy 55 12.8 46 7.8 72 72 WSW 8 13 29.69 1006 10 16 0.00 0.00
10:53 am 10:53 Partly Cloudy 58 14.4 45 7.2 62 62 W 10 17 29.70 1006 10 16 0.00 0.00
11:53 am 11:53 Partly Cloudy 61 16.1 44 6.7 54 54 W 14 22 29.68 1005 10 16 0.00 0.00
12:53 pm 12:53 Mostly Cloudy 63 17.2 44 6.7 50 50 W 17 28 29.70 1006 10 16 0.00 0.00
1:53 pm 13:53 Mostly Cloudy 64 17.8 43 6.1 46 46 W 18 30 29.70 1006 10 16 0.00 0.00
2:53 pm 14:53 Mostly Cloudy 65 18.3 45 7.2 49 49 WNW 17 28 29.69 1006 10 16 0.00 0.00
3:53 pm 15:53 Cloudy 63 17.2 45 7.2 52 52 W 16 26 29.71 1006 10 16 0.00 0.00
4:53 pm 16:53 Cloudy 62 16.7 45 7.2 54 54 W 17 28 29.72 1007 10 16 0.00 0.00
5:53 pm 17:53 Mostly Cloudy 59 15 49 9.4 69 69 W 9 15 29.74 1007 10 16 0.00 0.00
6:53 pm 18:53 Cloudy with Light Rain 57 13.9 50 10 78 78 W 13 20 29.75 1008 10 16 0.00 0.00
7:08 pm 19:08 Cloudy with Rain 56 13.3 52 11.1 87 87 WNW 12 19 29.75 1007 10 16 0.00 0.00
7:29 pm 19:29 Cloudy with Light Rain 55 12.8 53 11.7 93 93 W 14 22 29.76 1008 6 10 0.03 0.76
7:53 pm 19:53 Cloudy 55 12.8 53 11.7 93 93 W 10 17 29.77 1008 10 16 0.03 0.76
8:04 pm 20:04 Cloudy 55 12.8 53 11.7 93 93 WNW 8 13 29.77 1008 10 16 0.00 0.00
8:49 pm 20:49 Cloudy 55 13 52 11 88 88 WNW 12 19 29.79 1009 10 16 0.00 0.00
8:53 pm 20:53 Cloudy 55 12.8 52 11.1 90 90 WNW 10 17 29.79 1009 10 16 0.00 0.00
9:53 pm 21:53 Cloudy 55 12.8 52 11.1 90 90 W 8 13 29.79 1009 10 16 0.00 0.00
10:53 pm 22:53 Mostly Cloudy 55 12.8 52 11.1 90 90 W 8 13 29.80 1009 10 16 0.00 0.00
11:53 pm 23:53 Mostly Clear 53 11.7 50 10 89 89 WNW 10 17 29.80 1009 10 16 0.00 0.00

Powered by AerisWeather